User: anonymous   Login
Location: Kailua
(21.4020°N, 157.7390°W)
Time: 08:18:16
(UTC-10:00)
Language:

Cosmos 2221 Rocket - Orbit

View from above orbital plane
View from above orbital plane
View from above satellite
View from above satellite

Ground track
Ground track

The orbit data is extracted from the following two-line orbital elements,

1 22237U 92080B   15117.54272744  .00000341  00000-0  43982-4 0  9993
2 22237 082.5097 124.7524 0018434 238.8757 236.6812 14.78117299207965
Epoch (UTC): 27 April 2015 13:01:31
Eccentricity: 0.0018434
inclination: 82.5097°
perigee height: 622 km
apogee height: 648 km
right ascension of ascending node: 124.7524°
argument of perigee: 238.8757°
revolutions per day: 14.78117299
mean anomaly at epoch: 236.6812°
orbit number at epoch: 20796

The dashed part of the orbit path shows where the satellite is in the earth's shadow,  

DLR